[[{"header":{"parameterUnit":"m.s-1","parameterCategory":1,"la1":30.2991,"la2":30.254,"lo1":-89.0895,"lo2":-89.0444,"dy":0.0017,"dx":0.0017,"nx":28,"ny":28,"refTime":"2025-03-14T09:00:00:Z","depth":0,"parameterNumber":2,"parameterNumberName":"U-component_of_WINDS"},"data":[0,0,0,0,0,0,0,0,0,0,0,0,0,0,0,0,0,0,0,0,0,0,0,0,0,0,0,0,0,0,0,0,0,0,0,0,0,0,0,0,0,0,0,0,0,0,0,0,0,0,0,0,0,0,0,0,0,0,-1.4431,-1.4431,0,-1.4447,-1.4447,-1.4447,-1.442,-1.4419,-1.4418,-1.4417,-1.4436,-1.4437,-1.4439,0,0,0,0,0,0,0,0,0,0,0,0,0,-1.4379,-1.438,-1.4431,-1.4431,-1.4431,-1.4447,-1.4447,-1.4447,-1.442,-1.4419,-1.4418,-1.4417,-1.4436,-1.4437,-1.4439,0,0,0,0,0,0,0,0,0,0,0,0,0,-1.4399,-1.4381,-1.4431,-1.442,-1.4419,-1.4447,-1.4447,-1.4447,-1.4421,-1.4419,-1.4418,-1.4416,-1.4435,-1.4437,-1.4439,-1.448,0,0,-1.4445,-1.4446,0,0,0,0,0,0,0,0,-1.4398,-1.4401,-1.4421,-1.442,-1.4419,-1.443,-1.4436,-1.4458,-1.4421,-1.442,-1.4417,-1.4416,-1.4435,-1.4437,-1.4443,-1.448,-1.4481,-1.4446,-1.4447,-1.4448,-1.4448,0,0,0,0,0,0,0,-1.4397,-1.44,-1.4437,-1.4421,-1.442,-1.4414,-1.4416,-1.444,-1.4435,-1.442,-1.4418,-1.442,-1.4435,-1.4442,-1.4444,-1.4482,-1.4446,-1.4447,-1.4449,-1.4449,-1.4552,-1.4554,0,0,0,0,0,0,-1.4396,-1.4399,-1.4437,-1.4438,-1.4405,-1.4417,-1.4418,-1.4428,-1.4435,-1.4435,-1.4421,-1.4419,-1.4439,-1.4441,-1.4444,-1.4491,-1.4448,-1.445,-1.4451,-1.4551,-1.4553,-1.4554,0,0,0,0,0,0,-1.4395,-1.44,-1.4436,-1.4418,-1.4422,-1.4419,-1.443,-1.4429,-1.4436,-1.4436,-1.4435,-1.4429,-1.4438,-1.4441,-1.4471,-1.4492,-1.4451,-1.4452,-1.4549,-1.4552,-1.4554,-1.4587,0,0,0,0,0,0,-1.4394,-1.44,-1.4414,-1.4418,-1.4423,-1.4462,-1.4432,-1.443,-1.4439,-1.4436,-1.4443,-1.4443,-1.4437,-1.4468,-1.4473,-1.4494,-1.4454,-1.4547,-1.455,-1.4553,-1.4584,-1.459,-1.4595,0,0,0,0,0,-1.4392,-1.4424,-1.4415,-1.442,-1.4441,-1.4463,-1.4466,-1.4458,-1.4441,-1.4456,-1.4456,-1.4443,-1.4489,-1.4471,-1.4476,-1.4498,-1.4546,-1.4549,-1.4553,-1.4581,-1.4589,-1.4595,0,0,0,0,0,0,-1.4423,-1.4424,-1.4415,-1.4448,-1.4456,-1.4458,-1.4477,-1.4466,-1.4479,-1.4475,-1.4466,-1.4467,-1.4499,-1.4502,-1.4482,-1.4538,-1.4515,-1.4519,-1.4535,-1.4542,-1.4547,-1.4545,-1.4456,0,0,0,0,0,-1.4433,-1.445,-1.445,-1.448,-1.4484,-1.448,-1.4489,-1.4482,-1.449,-1.4493,-1.4495,-1.4504,-1.452,-1.4531,-1.4547,-1.4584,-1.4585,-1.4602,-1.4608,-1.4613,-1.4616,-1.4636,-1.4644,-1.4566,-1.4566,-1.4566,0,0,-1.4456,-1.4458,-1.4469,-1.4486,-1.4491,-1.4509,-1.4483,-1.4503,-1.4516,-1.4496,-1.4524,-1.4526,-1.4535,-1.4569,-1.4584,-1.4572,-1.4638,-1.4617,-1.4621,-1.4622,-1.4641,-1.4648,-1.4655,-1.4568,-1.4568,-1.4567,0,0,-1.4505,-1.4509,-1.4533,-1.4539,-1.4546,-1.4543,-1.4549,-1.4554,-1.4554,-1.4582,-1.4567,-1.4583,-1.4612,-1.4619,-1.4626,-1.4678,-1.4666,-1.4684,-1.4713,-1.4733,-1.4739,-1.4744,-1.4763,-1.4769,-1.4688,-1.4688,-1.4688,0,-1.4531,-1.4557,-1.4548,-1.4569,-1.4577,-1.4559,-1.4584,-1.459,-1.4603,-1.4609,-1.4596,-1.4631,-1.4636,-1.4671,-1.4684,-1.469,-1.4697,-1.4682,-1.4739,-1.4744,-1.4749,-1.4766,-1.4773,-1.469,-1.469,-1.469,-1.4689,0,-1.4589,-1.4608,-1.4627,-1.4638,-1.4649,-1.4672,-1.4667,-1.4678,-1.4671,-1.467,-1.4698,-1.4703,-1.4719,-1.4727,-1.4721,-1.4761,-1.4754,-1.474,-1.4716,-1.4759,-1.4775,-1.4781,-1.4693,-1.4692,-1.4692,-1.4691,0,0,-1.4657,-1.4663,-1.4671,-1.4675,-1.4683,-1.4697,-1.472,-1.4735,-1.4745,-1.4754,-1.4773,-1.4798,-1.4785,-1.4794,-1.4788,-1.4805,-1.4846,-1.4789,-1.4789,-1.4799,-1.4891,-1.49,-1.4908,-1.4838,-1.484,-1.4841,-1.489,0,-1.4706,-1.4743,-1.4736,-1.4773,-1.479,-1.4774,-1.4794,-1.4801,-1.4801,-1.4815,-1.4816,-1.4833,-1.4815,-1.482,-1.4836,-1.4837,-1.4864,-1.4834,-1.4856,-1.4857,-1.4853,-1.4916,-1.4927,-1.4973,-1.4896,-1.4897,-1.4898,0,-1.4767,-1.4778,-1.4816,-1.4821,-1.4828,-1.4845,-1.4858,-1.4873,-1.4881,-1.4879,-1.4889,-1.488,-1.4903,-1.488,-1.4912,-1.4892,-1.4901,-1.4903,-1.4904,-1.4905,-1.4879,-1.4918,-1.4987,-1.4994,-1.4908,-1.4907,-1.4906,0,-1.4811,-1.4836,-1.4862,-1.4867,-1.4873,-1.4886,-1.4889,-1.4896,-1.4905,-1.4917,-1.4923,-1.4938,-1.4946,-1.4958,-1.4954,-1.4937,-1.4987,-1.4963,-1.4986,-1.4986,-1.4996,-1.4996,-1.5067,-1.5004,-1.5004,-1.5004,-1.5004,0,-1.4865,-1.489,-1.4882,-1.4898,-1.4925,-1.4917,-1.4944,-1.4946,-1.4952,-1.4968,-1.4956,-1.4972,-1.4966,-1.4982,-1.4979,-1.5006,-1.501,-1.5009,-1.5008,-1.501,-1.501,-1.5015,-1.5011,-1.5006,-1.5005,-1.5005,-1.5005,0,-1.4919,-1.4915,-1.4943,-1.4946,-1.4948,-1.4967,-1.4971,-1.4986,-1.4985,-1.5006,-1.5011,-1.501,-1.5028,-1.5025,-1.5045,-1.5043,-1.5077,-1.5072,-1.5074,-1.5072,-1.5095,-1.5093,-1.5171,-1.5181,-1.5113,-1.5113,-1.5114,0,-1.4954,-1.4972,-1.4977,-1.4987,-1.4991,-1.5007,-1.5016,-1.5009,-1.5019,-1.503,-1.5044,-1.5061,-1.5074,-1.5104,-1.5105,-1.5121,-1.5116,-1.5143,-1.5119,-1.512,-1.5116,-1.5114,-1.5116,-1.5147,-1.5148,-1.5149,-1.5149,0,-1.5014,-1.5012,-1.5025,-1.5038,-1.5049,-1.5059,-1.5068,-1.5077,-1.5071,-1.5083,-1.5101,-1.5111,-1.5132,-1.5149,-1.5163,-1.5168,-1.5158,-1.5157,-1.5163,-1.5164,-1.5164,-1.5164,-1.5086,-1.5155,-1.5154,-1.5154,-1.5154,-1.5153,-1.5059,-1.5074,-1.508,-1.5095,-1.5101,-1.511,-1.5124,-1.5125,-1.5139,-1.5155,-1.515,-1.5171,-1.5179,-1.5197,-1.5203,-1.522,-1.521,-1.5219,-1.5221,-1.5223,-1.5225,-1.5162,-1.5223,-1.5222,-1.5222,-1.5222,-1.5222,0,-1.5118,-1.5121,-1.5136,-1.5148,-1.516,-1.5149,-1.5159,-1.517,-1.5187,-1.5195,-1.5208,-1.5229,-1.5246,-1.5248,-1.5264,-1.5277,-1.5273,-1.5281,-1.528,-1.5281,-1.5233,-1.5226,-1.5284,-1.5284,-1.5284,-1.5284,-1.5284,-1.5284,-1.5151,-1.5175,-1.5173,-1.5201,-1.5205,-1.5223,-1.523,-1.5238,-1.5244,-1.5267,-1.5281,-1.5282,-1.5288,-1.5305,-1.532,-1.532,-1.5326,-1.5336,-1.5335,-1.5291,-1.5284,-1.5278,-1.5271,-1.5338,-1.5338,-1.5381,-1.5381,-1.5382]},{"header":{"parameterUnit":"m.s-1","parameterCategory":1,"la1":30.2991,"la2":30.254,"lo1":-89.0895,"lo2":-89.0444,"dy":0.0017,"dx":0.0017,"nx":28,"ny":28,"refTime":"2025-03-14T09:00:00:Z","depth":0,"parameterNumber":3,"parameterNumberName":"V-component_of_WINDS"},"data":[0,0,0,0,0,0,0,0,0,0,0,0,0,0,0,0,0,0,0,0,0,0,0,0,0,0,0,0,0,0,0,0,0,0,0,0,0,0,0,0,0,0,0,0,0,0,0,0,0,0,0,0,0,0,0,0,0,0,2.1738,2.1738,0,2.1712,2.1712,2.1712,2.1688,2.1688,2.1687,2.1687,2.1658,2.1658,2.1657,0,0,0,0,0,0,0,0,0,0,0,0,0,2.1767,2.1767,2.1738,2.1738,2.1738,2.1712,2.1712,2.1712,2.1688,2.1688,2.1687,2.1687,2.1659,2.1658,2.1657,0,0,0,0,0,0,0,0,0,0,0,0,0,2.1749,2.1767,2.1739,2.1723,2.1721,2.1712,2.1712,2.1712,2.1688,2.1688,2.1687,2.1687,2.1659,2.1658,2.1657,2.1661,0,0,2.1655,2.1655,0,0,0,0,0,0,0,0,2.175,2.1748,2.1726,2.1724,2.1722,2.1703,2.1711,2.1695,2.1688,2.1701,2.1687,2.1687,2.1673,2.1672,2.1667,2.166,2.1658,2.1655,2.1655,2.1654,2.1654,0,0,0,0,0,0,0,2.1751,2.1749,2.1728,2.1725,2.1723,2.1717,2.1714,2.1708,2.169,2.17,2.1698,2.1695,2.1672,2.1668,2.1667,2.1658,2.1655,2.1654,2.1654,2.1654,2.1653,2.1654,0,0,0,0,0,0,2.1755,2.175,2.1729,2.1727,2.1736,2.1717,2.1714,2.171,2.169,2.1686,2.1695,2.1694,2.167,2.1668,2.1665,2.167,2.1654,2.1653,2.1653,2.1653,2.1653,2.1654,0,0,0,0,0,0,2.1756,2.1754,2.173,2.1738,2.1735,2.1717,2.1713,2.1709,2.1705,2.1687,2.1683,2.1695,2.1669,2.1667,2.1663,2.1668,2.1653,2.1652,2.1652,2.1653,2.1654,2.1677,0,0,0,0,0,0,2.1757,2.1754,2.1755,2.1739,2.1734,2.1728,2.1713,2.1709,2.1704,2.1702,2.1685,2.1682,2.1669,2.1664,2.1662,2.1667,2.1652,2.1652,2.1653,2.1654,2.1676,2.1679,2.1681,0,0,0,0,0,2.1758,2.1762,2.1756,2.1753,2.1736,2.1728,2.1726,2.1712,2.1705,2.1706,2.1694,2.1682,2.1668,2.1664,2.1661,2.1666,2.1651,2.1652,2.1653,2.1675,2.1678,2.1681,0,0,0,0,0,0,2.1779,2.176,2.1752,2.1751,2.1742,2.1724,2.1726,2.1715,2.1707,2.1706,2.1687,2.1684,2.1682,2.1674,2.1669,2.1669,2.1658,2.1659,2.1675,2.1678,2.1681,2.1683,2.1651,0,0,0,0,0,2.1784,2.178,2.1763,2.1764,2.176,2.1744,2.174,2.173,2.1719,2.1714,2.1702,2.1692,2.1685,2.1681,2.1674,2.1675,2.1671,2.1677,2.1679,2.1681,2.1682,2.1683,2.1686,2.1657,2.1657,2.1657,0,0,2.1794,2.1782,2.1781,2.1768,2.1759,2.1756,2.174,2.1736,2.1734,2.1714,2.171,2.1701,2.1688,2.1687,2.1686,2.168,2.169,2.1683,2.1685,2.1684,2.1685,2.1688,2.169,2.1658,2.1658,2.1658,0,0,2.1809,2.18,2.1801,2.1793,2.1781,2.177,2.177,2.1754,2.1748,2.1744,2.173,2.1725,2.1714,2.1706,2.17,2.1714,2.1703,2.1712,2.1726,2.1727,2.1729,2.1731,2.1737,2.174,2.1713,2.1713,2.1713,0,2.1823,2.1817,2.1802,2.18,2.1795,2.1777,2.1778,2.1771,2.1756,2.1753,2.1747,2.1733,2.1723,2.1721,2.1724,2.172,2.172,2.1714,2.173,2.1732,2.1734,2.1739,2.1742,2.1714,2.1714,2.1714,2.1714,0,2.1834,2.1831,2.1832,2.182,2.1815,2.1814,2.1799,2.1796,2.1787,2.1777,2.1774,2.1761,2.1752,2.175,2.174,2.1747,2.1743,2.1734,2.1722,2.1738,2.1743,2.1745,2.1716,2.1716,2.1715,2.1715,0,0,2.1863,2.1843,2.1844,2.1839,2.1825,2.1821,2.182,2.1811,2.181,2.18,2.1799,2.179,2.1782,2.1775,2.1764,2.1766,2.1779,2.1756,2.1755,2.1762,2.1787,2.1795,2.1798,2.1772,2.1772,2.1772,2.1788,0,2.1877,2.1874,2.1861,2.1862,2.1859,2.1843,2.1841,2.1832,2.1823,2.1819,2.1808,2.1803,2.1792,2.1788,2.1788,2.1777,2.1784,2.1776,2.1771,2.1771,2.1776,2.18,2.1808,2.1824,2.179,2.179,2.1791,0,2.1893,2.1886,2.1887,2.1874,2.1872,2.1872,2.1864,2.1859,2.1849,2.1842,2.1836,2.1824,2.1822,2.1811,2.1808,2.1803,2.18,2.1794,2.1794,2.1794,2.1782,2.1802,2.1829,2.1832,2.1793,2.1793,2.1793,0,2.1916,2.1906,2.1906,2.1902,2.1886,2.1886,2.188,2.1869,2.1865,2.1858,2.1855,2.1848,2.1843,2.1838,2.1824,2.1817,2.1823,2.1811,2.1818,2.1819,2.1821,2.1821,2.1849,2.1817,2.1817,2.1817,2.1817,0,2.1933,2.1935,2.1916,2.1916,2.1917,2.1902,2.1904,2.1896,2.1886,2.1885,2.1869,2.1868,2.185,2.1846,2.1836,2.1836,2.1833,2.1828,2.1826,2.183,2.1831,2.1829,2.1828,2.1818,2.1818,2.1817,2.1817,0,2.1959,2.1946,2.1945,2.1931,2.1927,2.1929,2.1916,2.1916,2.1906,2.1904,2.1903,2.1887,2.1883,2.1869,2.186,2.1853,2.1856,2.185,2.186,2.1858,2.1867,2.1867,2.1896,2.1899,2.1864,2.1864,2.1865,0,2.1972,2.1972,2.1959,2.1957,2.1951,2.1948,2.1944,2.1929,2.1926,2.1915,2.1916,2.1911,2.1905,2.1898,2.1886,2.188,2.1875,2.1885,2.1873,2.1879,2.1876,2.1877,2.1878,2.1888,2.1888,2.1889,2.1889,0,2.1996,2.199,2.1986,2.198,2.1976,2.197,2.1964,2.1963,2.1946,2.1943,2.1939,2.1935,2.1927,2.1922,2.1914,2.1906,2.1896,2.1893,2.1894,2.19,2.1906,2.1904,2.1868,2.1892,2.1892,2.1892,2.1892,2.1891,2.2016,2.2017,2.2008,2.2004,2.1997,2.1992,2.1991,2.1982,2.1978,2.1971,2.1962,2.1959,2.1949,2.1937,2.1931,2.1929,2.1923,2.1925,2.1925,2.1926,2.1929,2.1906,2.1927,2.1927,2.1927,2.1927,2.1927,0,2.2041,2.2034,2.2031,2.2023,2.202,2.201,2.2002,2.2001,2.1998,2.1991,2.1986,2.1982,2.1977,2.1965,2.1959,2.1959,2.1954,2.1958,2.1959,2.1957,2.1934,2.1934,2.1963,2.1963,2.1963,2.1963,2.1963,2.1963,2.2054,2.2055,2.2048,2.2046,2.2039,2.2036,2.2033,2.2028,2.2022,2.2018,2.2014,2.2007,2.1997,2.1991,2.1986,2.1983,2.1982,2.1988,2.1983,2.1962,2.1959,2.1956,2.1955,2.1988,2.1988,2.2007,2.2007,2.2007]}]]